Regional Weather Roundup
Issued by NWS Wakefield, VA

Home | Current Version | Previous Version | Graphics & Text | Print | Product List | Glossary On
Versions: 1 2 3 4 5 6 7 8 9 10 11 12 13 14 15 16 17 18 19 20 21 22 23 24 25 26 27 28 29 30 31 32 33 34 35 36 37 38 39 40 41 42 43 44 45 46 47 48 49 50
000
ASUS41 KAKQ 251614
RWRAKQ

REGIONAL WEATHER ROUNDUP
NATIONAL WEATHER SERVICE WAKEFIELD VA
1200 PM EDT SAT APR 25 2015

Note: "fair" indicates few or no clouds below 12,000 feet with no
significant weather and/or obstructions to visibility. * = Denotes
station may not report precipitation (e.g., rain,snow,etc.),
thunder or fog.

VAZ042-051-052>054-056-251700-
NORTHERN VIRGINIA

CITY           SKY/WX    TMP DP  RH WIND       PRES   REMARKS
WASH NATIONAL  CLOUDY    51  31  46 S8        29.94F
DULLES         CLOUDY    48  14  25 CALM      29.93F
FORT BELVOIR   CLOUDY    49  30  48 E5        29.94F
QUANTICO       CLOUDY    50  29  44 S3        29.95F
FREDERICKSBRG* LGT RAIN  50  28  42 NE7       29.93F
STAFFORD*      LGT RAIN  48  30  48 NE5       29.97F
WARRENTON      DRIZZLE   49  23  37 SE3       29.92F
CULPEPER*      LGT RAIN  48  21  34 CALM      29.94F
MANASSAS*      CLOUDY    48  16  27 CALM      29.94F
LEESBURG*      CLOUDY    48  27  43 S5        29.93F
WINCHESTER     CLOUDY    46  19  34 CALM      29.91F
FRONT ROYAL*   CLOUDY    46  21  36 CALM      29.90F
LURAY*         LGT RAIN  48  27  43 NE7       29.89F
$$

VAZ048-049-060>072-079>083-251700-
CENTRAL AND SOUTH CENTRAL VIRGINIA

CITY           SKY/WX    TMP DP  RH WIND       PRES   REMARKS
RICHMOND       LGT RAIN  50  38  63 E6        29.93F
CHESTERFIELD*  CLOUDY    48  30  49 E6        29.94F
PETERSBURG*    LGT RAIN  51  43  73 E7        29.93F
HANOVER        LGT RAIN  48  39  71 VRB3      29.94F
TAPPAHANNOCK*  CLOUDY    53  25  33 N3        29.94F
QUINTON*       CLOUDY    50  40  67 E3        29.93F
CHARLOTTSVILLE LGT RAIN  49  25  39 S3        29.92F
GORDONSVILLE*  CLOUDY    49  23  36 MISG      29.92F
ORANGE*        CLOUDY    50  23  34 NE3       29.94F
LOUISA*        LGT RAIN  50  28  43 E3        29.91F
BUMPASS*       CLOUDY    49  28  43 E3        29.92F
FARMVILLE*     LGT RAIN  50  38  63 NE5       29.90F
CREWE*         CLOUDY    47  40  76 CALM      29.90F
FORT PICKETT*  CLOUDY    48  40  74 E7        29.90F
CHASE CITY*    CLOUDY    53  37  55 E3        29.89F
CLARKSVILLE*   CLOUDY    54  34  47 E9G17     29.88F
SOUTH HILL*    CLOUDY    51  38  62 CALM      29.96S
LAWRENCEVILLE* CLOUDY    51  41  67 NE6       29.90F
EMPORIA*       CLOUDY    52  43  71 CALM      29.93F
$$

VAZ088>098-251700-
SOUTHEAST VIRGINIA

CITY           SKY/WX    TMP DP  RH WIND       PRES   REMARKS
NORFOLK        CLOUDY    52  40  63 E8        29.94F
VIRGINIA BEACH CLOUDY    54  42  64 E7        29.93F
NORFOLK NAVAL  LGT RAIN  54  42  64 E8        29.94F
WEST POINT*    CLOUDY    54  39  57 E3        29.94F
SALUDA*        CLOUDY    52  38  60 SE5       29.93S
NEWPORT NEWS   LGT RAIN  54  45  71 E6        29.94F
LANGLEY AFB    DRIZZLE   52  41  67 E7        29.92F
FORT EUSTIS    CLOUDY    52  45  76 E6        29.91F
WILLIAMSBURG*  CLOUDY    54  48  82 CALM      29.94F
HR EXEC AP*    PTSUNNY   55  39  54 E9        29.95F
FRANKLIN*      CLOUDY    54  44  67 NE8       29.93F
WAKEFIELD      LGT RAIN  50  44  80 VRB5      29.93F
$$

VAZ020-022-025-037-045-251700-
WEST CENTRAL AND SOUTHWEST VIRGINIA

CITY           SKY/WX    TMP DP  RH WIND       PRES   REMARKS
STAUNTON*      LGT RAIN  48  32  53 S5        29.92S
WAYNESBORO*    CLOUDY    43  30  60 SE5       29.90F
HOT SPRINGS VA DRIZZLE   36  35  96 SE9       29.82F
LYNCHBURG      CLOUDY    46  34  62 NE12      29.92F
DANVILLE       LGT RAIN  51  41  68 E6        29.89F
SOUTH BOSTON*  CLOUDY    52  36  53 NE3       29.90F
MARTINSVILLE   CLOUDY    50  37  62 NE5       29.92S
ROANOKE        LGT RAIN  46  38  73 SE5       29.94R
BLACKSBURG     HVY RAIN  41  36  81 E5        29.93R
DUBLIN*        DRIZZLE   43  41  92 NE8       29.88F
MARION*        DRIZZLE   45  38  77 E9        29.86F
HILLSVILLE*    CLOUDY    46  33  59 SE5       29.85S
RICHLANDS*     CLOUDY    46  27  46 SE6       29.77F
WISE*          CLOUDY    52  39  62 S7        29.78S
ABINGDON*      CLOUDY    54  42  63 E10       29.80S
$$

MDZ021>025-VAZ099-100-251700-
SOUTHERN MARYLAND AND THE DELMARVA PENINSULA

CITY           SKY/WX    TMP DP  RH WIND       PRES   REMARKS
PATUXENT RIVER CLOUDY    47  34  60 S7        29.95F
BAY BRIDGE APT   N/A    N/A N/A N/A S8        29.94F
LEONARDTOWN    CLOUDY    46  34  61 SE6       29.96F
DOVER          CLOUDY    46  27  47 W6        29.90S
GEORGETOWN     CLOUDY    45  25  45 SW3       29.95F
EASTON         MOSUNNY   48  30  49 S7        29.98
CAMBRIDGE      CLOUDY    48  28  46 SE7       29.95F
SALISBURY      CLOUDY    47  27  45 VRB3      29.95F
OCEAN CITY     CLOUDY    48  27  44 W5        29.96F
WALLOPS ISLAND CLOUDY    48  32  53 E3        29.96F
ACCOMACK*      CLOUDY    46  -8  10 E9        29.94F
$$

NCZ012>017-030>032-251700-
NORTH CENTRAL AND EASTERN NORTH CAROLINA

CITY           SKY/WX    TMP DP  RH WIND       PRES   REMARKS
ROANOKE RAPIDS CLOUDY    54  41  62 E3        29.90F
RALEIGH        LGT RAIN  56  50  80 SW9       29.89F
ELIZABETH CITY CLOUDY    58  31  35 E10       29.92F
AHOSKIE*       CLOUDY    55  42  61 CALM      29.91F
EDENTON*       CLOUDY    59  48  65 E10       29.91F
CURRITUCK*     CLOUDY    58  39  50 NE8       29.95F
KILL DEVIL HLS CLOUDY    58  32  36 E3        29.92F
MANTEO         CLOUDY    59  27  29 E8        29.94F
CAPE HATTERAS  CLOUDY    60  49  66 NW9       29.93F
TARBORO*       CLOUDY    56  45  67 CALM      29.92F
GOLDSBORO      LGT RAIN  61  51  70 W8        29.89F
WASHINGTON     CLOUDY    59  47  64 SW5       29.91F
GREENVILLE     CLOUDY    61  50  67 SW6       29.93F
NEW BERN       CLOUDY    64  52  64 SW5       29.93F
WILMINGTON     CLOUDY    61  54  77 W10       29.95R
$$

VAZ048-251700-
ELSEWHERE

CITY           SKY/WX    TMP DP  RH WIND       PRES   REMARKS
HARRISBURG PA  CLOUDY    46  21  37 W8        29.92F
BALTIMORE      CLOUDY    48  28  46 SW6       29.93F
ANNAPOLIS      CLOUDY    49  29  46 VRB3      29.93F
ANDREWS AFB    CLOUDY    49  30  49 S7        29.92F
PHILADELPHIA   CLOUDY    49  23  36 SW9       29.91F
HENDERSON NC   CLOUDY    54  33  45 SE6       29.88F
GREENSBORO     LGT RAIN  51  49  92 SE5       29.84F FOG
ROCKY MOUNT    CLOUDY    57  47  69 CALM      29.90F
$$

VAZ100-251700-
MARINE

STATION/POSITION TIME  TEMP    WIND        PRES    WAVE   SWELL
                       AIR SEA DIR/SP/G            HT/PER HT/PER
                 (UTC) (F)     (DEG/KT/KT) (MB)    (FT/S) (FT/S)
BRANDYWINE LGT   1500   44 51  330/  7/  9 1014.0F
CAPE MAY NJ      1500   45 54  320/  8/ 11 1013.5F
LEWES DE         1500   45 52  290/  9/ 11 1014.3F
15NM E FENWICK I 1550   45 47              1013.9F   2/ 6
OCEAN-CITY-INLET 1506   46 50  330/  2/  3 1014.4S
WACHAPREAGUE VA  1500   47 56  110/  4/  6 1015.3R
THOMAS POINT MD  1600   46 52  180/ 12/ 13 1014.4F
GOOSES REEF MD   1600   46 53  200/ 10/ 12   N/A     1
COVE POINT MD    1500   45     180/  5/  7 1015.8F
SOLOMONS ISLAND  1506      55                N/A
BISHOPS HEAD MD  1500   46 54  130/  5/  6 1014.6F
PINEY POINT MD   1500          120/  7/  8   N/A
CAMBRIDGE MD     1500   46 57  220/  4/  5 1014.6F
LEWISETTA VA     1500   50 56              1014.5F
RAPPAHANNOCK LGT 1500          110/  9/ 10 1015.2F
YORK RVR RNG VA  1506   52     100/  9/ 11 1013.1F
YORKTOWN VA      1506   53 60  100/  6/ 11 1014.0F
JAMESTOWN VA     1600   51 64   90/  4/  6 1012.8F
DOMINION TERM VA 1500   52      70/  7/  9 1014.4F
KIPTOPEKE VA     1500      62   70/  9/ 11   N/A
CHES BAY BRIDGE  1506   51 58   40/ 15/ 17 1013.3F
CAPE HENRY VA    1500   50      50/ 12/ 14 1013.1F
CHESAPEAKE LGHT  1500   50      50/ 10/ 11 1015.5F
WILLOUBY STN VA  1500   52      90/ 12/ 13 1014.6F
S CRANEY ISL VA  1506           70/  8/ 11 1014.1F
CAPE HENRY BUOY  1528      52                N/A     2/12
1ST LANDING BUOY 1600                      1013.4    2/ 3
OFFSHORE WE BUOY 1511      50                N/A     2/13   2/13
64NM E OF VA BCH 1550   55 59   30/ 10/ 14 1013.3F   2/12   2/12
DUCK PIER NC     1506   56 55   70/  4/  5 1013.4R
44056 DUCK FRF   1511      54                N/A     2/13   2/13
OREGON INLET NC  1500   58 57   70/  6/  7 1013.8F
HATTERAS NC      1506   61 65  290/ 12/ 12 1013.0F
DIAMOND SHLS NC  1550   63 73  320/ 12/ 14 1013.4F   3/ 8   2/ 8
CAPE LOOKOUT NC  1600   66     240/  5/  8 1012.9F
$$



USA.gov is the U.S. government's official web portal to all federal, state and local government web resources and services.